STARLINK-33829, 63496

Orbit data source: Space-Track

STARLINK-33829, 63496 is a payload satellite owned by SpaceX/Seattle (US) in LEO that was launched on Mon, 07 Apr 2025 UTC via an FALCON 9 launch vehicle from the Air Force Western Test Range (AFWTR). Payload-class satellites include a variety of spacecraft equipped with specific instruments for various scientific and technological missions. These include communications satellites like Starlink; space stations such as the ISS; scientific satellites like the Hubble; Earth observation satellites from companies like Planet Labs, Umbra, and HawkEye 360; GPS; miniature CubeSats for education and research; and military/defense satellites.

Loading next visibility...
Identifier
63496, 2025-071D
Orbit
LEO
Country
Flag of USUS
Related business
Manufacturer
SpaceX/Seattle
Mission
Operational Commercial Communications
Bus & Motor
STARLINK V2MO, Unknown motor
Mass
575 kg wet, ~530 kg dry
Launch date (UTC)
2025-04-07 (5 months ago)
Launch vehicle
FALCON 9
Launch site
Air Force Western Test Range (AFWTR)
Object type
Payload
Rocket body
Debris
Shape & HBR
Box + 1 Pan, 14.5 m
Radar Cross Section
41.120 m², Large (>1 m²)

Expand to show TLE details & history
Last TLE update: 21 hours ago

TLE from 21 hours ago
0 STARLINK-33829
1 63496U 25071D   25257.36576937  .00031487  00000-0  10701-2 0  9994
2 63496  53.1569 238.9518 0001022  93.4999 266.6118 15.30219878 25712
Epoch: 2025-09-14T08:46Z
TLE epoch observation values (Epoch: 2025-09-14T08:46:42.473Z)
Latitude
-0.00008°
Longitude
113.68896°
Altitude
476.097 km
Speed
7.629 km/s
True Right ascension
15h 55m 48s
True Declination
0° 00' 00"
Sunlit
Object was in daylight at epoch
Visualization orbit readout
Latitude
Unknown
Longitude
Unknown
Altitude
Unknown
Speed
Unknown
Apparent Right ascension
Unknown
Apparent Declination
Unknown
Sunlit
N/A
Visualization observer readout
Local Sidereal Time
22:04:27
Azimuth
Unknown
Elevation
Unknown
Doppler factor
Unknown
Orbital elements
Apogee altitude
476.113 km
Perigee altitude
474.712 km
Semi-major axis
6,853.55 km
Eccentricity
0.0001
Inclination
53.1569°
RAAN
238.9518°
Arg. of periapsis
93.4999°
True anomaly
266.60011°
Mean anomaly
266.6118°
Eccentric anomaly
266.60595°
Mean motion
3.82534 °/min
Orbital period
94.11 mins
BSTAR
0.0010701
Loading maneuver chart data...
Computing Atmospheric mass density...
Loading historical data...
Loading historical data...
Loading historical data...
Loading historical data...
Loading historical data...
Loading historical data...
Loading historical data...

Documentation

Showing up to 5 results
|